| time (UTC) | temp F | wind direction | speed MPH | gust MPH | rain 1hr in | rain 24hr in | rain mn in | humidity % | barometer mb |
| 20260505223554 | 52 | 237 | 0.0 | 10.0 | 0.16 | 0.16 | 0.11 | 96 | 1007.4 |
| 20260505223057 | 52 | 246 | 2.0 | 7.0 | 0.14 | 0.14 | 0.09 | 96 | 1007.5 |
| 20260505222557 | 52 | 252 | 3.0 | 7.0 | 0.13 | 0.13 | 0.08 | 95 | 1007.6 |
| 20260505222052 | 52 | 238 | 1.0 | 9.0 | 0.10 | 0.10 | 0.06 | 95 | 1007.7 |
| 20260505221551 | 52 | 291 | 2.0 | 9.0 | 0.08 | 0.08 | 0.03 | 95 | 1007.6 |
| 20260505221052 | 53 | 256 | 2.0 | 8.0 | 0.06 | 0.06 | 0.01 | 95 | 1007.4 |
| 20260505220548 | 53 | 207 | 1.0 | 9.0 | 0.05 | 0.05 | 0.00 | 95 | 1007.0 |
| 20260505220051 | 53 | 266 | 2.0 | 10.0 | 0.05 | 0.05 | 0.00 | 94 | 1006.9 |
| 20260505215647 | 53 | 294 | 5.0 | 10.0 | 0.05 | 0.05 | 0.05 | 93 | 1006.9 |
| 20260505215045 | 54 | 225 | 2.0 | 12.0 | 0.03 | 0.03 | 0.03 | 93 | 1007.0 |
| 20260505214554 | 55 | 240 | 4.0 | 12.0 | 0.02 | 0.02 | 0.02 | 92 | 1006.8 |
| 20260505214044 | 56 | 199 | 4.0 | 13.0 | 0.01 | 0.01 | 0.01 | 92 | 1006.8 |
| 20260505213543 | 56 | 232 | 2.0 | 13.0 | 0.00 | 0.00 | 0.00 | 90 | 1006.8 |
| 20260505213043 | 56 | 178 | 1.0 | 6.0 | 0.00 | 0.00 | 0.00 | 89 | 1006.3 |
| 20260505212541 | 56 | 23 | 1.0 | 10.0 | 0.00 | 0.00 | 0.00 | 89 | 1005.7 |
| 20260505212040 | 56 | 5 | 3.0 | 10.0 | 0.00 | 0.00 | 0.00 | 89 | 1005.4 |
| 20260505211540 | 56 | 77 | 2.0 | 8.0 | 0.00 | 0.00 | 0.00 | 88 | 1005.2 |
| 20260505211043 | 56 | 336 | 2.0 | 8.0 | 0.00 | 0.00 | 0.00 | 88 | 1005.0 |
| 20260505210539 | 56 | 63 | 2.0 | 6.0 | 0.00 | 0.00 | 0.00 | 88 | 1005.0 |
| 20260505210043 | 57 | 75 | 3.0 | 11.0 | 0.00 | 0.00 | 0.00 | 88 | 1005.0 |
| 20260505205540 | 57 | 73 | 2.0 | 10.0 | 0.00 | 0.00 | 0.00 | 88 | 1005.1 |
| 20260505205038 | 57 | 71 | 2.0 | 10.0 | 0.00 | 0.00 | 0.00 | 88 | 1004.9 |
| 20260505204538 | 57 | 49 | 3.0 | 11.0 | 0.00 | 0.00 | 0.00 | 87 | 1004.8 |
| 20260505204040 | 57 | 69 | 3.0 | 11.0 | 0.00 | 0.00 | 0.00 | 87 | 1004.9 |
| 20260505203540 | 57 | 76 | 3.0 | 11.0 | 0.00 | 0.00 | 0.00 | 88 | 1005.1 |
| 20260505203054 | 57 | 96 | 3.0 | 9.0 | 0.00 | 0.00 | 0.00 | 87 | 1005.1 |
| 20260505202538 | 57 | 54 | 3.0 | 10.0 | 0.00 | 0.00 | 0.00 | 87 | 1005.2 |
| 20260505202037 | 57 | 61 | 3.0 | 12.0 | 0.00 | 0.00 | 0.00 | 87 | 1005.0 |
| 20260505201543 | 57 | 55 | 3.0 | 11.0 | 0.00 | 0.00 | 0.00 | 88 | 1004.8 |
| 20260505201036 | 57 | 69 | 4.0 | 11.0 | 0.00 | 0.00 | 0.00 | 88 | 1004.9 |
| 20260505200536 | 57 | 26 | 4.0 | 10.0 | 0.00 | 0.00 | 0.00 | 88 | 1004.9 |
| 20260505200041 | 57 | 83 | 4.0 | 11.0 | 0.00 | 0.00 | 0.00 | 88 | 1005.1 |
| 20260505195535 | 57 | 82 | 4.0 | 16.0 | 0.00 | 0.00 | 0.00 | 88 | 1005.2 |
| 20260505195035 | 57 | 103 | 4.0 | 16.0 | 0.00 | 0.00 | 0.00 | 88 | 1005.3 |
| 20260505194537 | 57 | 80 | 4.0 | 9.0 | 0.00 | 0.00 | 0.00 | 88 | 1005.2 |
| 20260505194035 | 57 | 136 | 3.0 | 12.0 | 0.00 | 0.00 | 0.00 | 88 | 1005.5 |
| 20260505193536 | 57 | 99 | 3.0 | 12.0 | 0.00 | 0.00 | 0.00 | 88 | 1005.5 |
| 20260505193035 | 58 | 85 | 3.0 | 8.0 | 0.00 | 0.00 | 0.00 | 87 | 1005.5 |
| 20260505192534 | 58 | 86 | 3.0 | 10.0 | 0.00 | 0.00 | 0.00 | 87 | 1005.5 |
| 20260505192037 | 58 | 91 | 2.0 | 10.0 | 0.00 | 0.00 | 0.00 | 87 | 1005.4 |
| 20260505191534 | 58 | 109 | 3.0 | 8.0 | 0.00 | 0.00 | 0.00 | 87 | 1005.2 |
| 20260505191035 | 58 | 93 | 3.0 | 8.0 | 0.00 | 0.00 | 0.00 | 87 | 1005.2 |
| 20260505190533 | 58 | 78 | 3.0 | 8.0 | 0.00 | 0.00 | 0.00 | 86 | 1005.1 |
| 20260505190037 | 58 | 93 | 3.0 | 8.0 | 0.00 | 0.00 | 0.00 | 86 | 1005.2 |
| 20260505185532 | 58 | 78 | 3.0 | 10.0 | 0.00 | 0.00 | 0.00 | 86 | 1005.2 |
| 20260505185032 | 59 | 93 | 3.0 | 10.0 | 0.00 | 0.00 | 0.00 | 86 | 1005.2 |
| 20260505184536 | 59 | 186 | 3.0 | 9.0 | 0.00 | 0.00 | 0.00 | 86 | 1005.2 |
| 20260505184034 | 59 | 90 | 2.0 | 10.0 | 0.00 | 0.00 | 0.00 | 85 | 1005.2 |
| 20260505183530 | 59 | 89 | 3.0 | 10.0 | 0.00 | 0.00 | 0.00 | 85 | 1005.3 |
| 20260505183030 | 59 | 82 | 3.0 | 9.0 | 0.00 | 0.00 | 0.00 | 85 | 1005.4 |
| 20260505182529 | 59 | 39 | 3.0 | 9.0 | 0.00 | 0.00 | 0.00 | 85 | 1005.4 |
| 20260505182028 | 59 | 88 | 2.0 | 11.0 | 0.00 | 0.00 | 0.00 | 84 | 1005.4 |
| 20260505181535 | 60 | 91 | 2.0 | 11.0 | 0.00 | 0.00 | 0.00 | 84 | 1005.5 |
| 20260505181028 | 60 | 82 | 4.0 | 10.0 | 0.00 | 0.00 | 0.00 | 84 | 1005.5 |
| 20260505180527 | 60 | 68 | 2.0 | 12.0 | 0.00 | 0.00 | 0.00 | 84 | 1005.6 |
| 20260505180027 | 60 | 95 | 2.0 | 10.0 | 0.00 | 0.00 | 0.00 | 84 | 1005.6 |
| 20260505175528 | 60 | 67 | 2.0 | 7.0 | 0.00 | 0.00 | 0.00 | 83 | 1005.7 |
| 20260505175026 | 61 | 67 | 2.0 | 8.0 | 0.00 | 0.00 | 0.00 | 83 | 1005.8 |
| 20260505174535 | 61 | 101 | 2.0 | 8.0 | 0.00 | 0.00 | 0.00 | 83 | 1005.9 |
| 20260505174026 | 61 | 57 | 2.0 | 7.0 | 0.00 | 0.00 | 0.00 | 83 | 1005.9 |
| 20260505173525 | 61 | 85 | 2.0 | 8.0 | 0.00 | 0.00 | 0.00 | 83 | 1006.0 |
| 20260505173025 | 61 | 94 | 2.0 | 9.0 | 0.00 | 0.00 | 0.00 | 83 | 1006.0 |
| 20260505172525 | 61 | 97 | 1.0 | 8.0 | 0.00 | 0.00 | 0.00 | 83 | 1006.0 |
| 20260505172024 | 61 | 28 | 2.0 | 8.0 | 0.00 | 0.00 | 0.00 | 82 | 1006.0 |
| 20260505171524 | 61 | 93 | 3.0 | 8.0 | 0.00 | 0.00 | 0.00 | 82 | 1006.1 |
| 20260505171025 | 61 | 67 | 1.0 | 5.0 | 0.00 | 0.00 | 0.00 | 82 | 1006.1 |
| 20260505170523 | 61 | 63 | 2.0 | 6.0 | 0.00 | 0.00 | 0.00 | 81 | 1006.2 |
| 20260505170024 | 62 | 80 | 2.0 | 10.0 | 0.00 | 0.00 | 0.00 | 81 | 1006.1 |
| 20260505165523 | 62 | 121 | 3.0 | 10.0 | 0.00 | 0.00 | 0.00 | 80 | 1006.0 |
| 20260505165023 | 62 | 85 | 2.0 | 9.0 | 0.00 | 0.00 | 0.00 | 79 | 1006.1 |
| 20260505164523 | 63 | 340 | 2.0 | 8.0 | 0.00 | 0.00 | 0.00 | 78 | 1005.9 |
| 20260505164024 | 63 | 89 | 2.0 | 11.0 | 0.00 | 0.00 | 0.00 | 77 | 1006.0 |
| 20260505163522 | 64 | 253 | 2.0 | 11.0 | 0.00 | 0.00 | 0.00 | 77 | 1006.0 |
| 20260505163029 | 64 | 22 | 3.0 | 11.0 | 0.00 | 0.00 | 0.00 | 76 | 1006.0 |
| 20260505162521 | 65 | 84 | 2.0 | 10.0 | 0.00 | 0.00 | 0.00 | 76 | 1006.1 |
| 20260505162021 | 65 | 33 | 3.0 | 10.0 | 0.00 | 0.00 | 0.00 | 75 | 1006.1 |
| 20260505161520 | 65 | 127 | 1.0 | 10.0 | 0.00 | 0.00 | 0.00 | 76 | 1006.2 |
| 20260505161020 | 65 | 71 | 2.0 | 10.0 | 0.00 | 0.00 | 0.00 | 75 | 1006.4 |
| 20260505160520 | 65 | 39 | 4.0 | 9.0 | 0.00 | 0.00 | 0.00 | 75 | 1006.2 |
| 20260505153021 | 66 | 81 | 2.0 | 9.0 | 0.00 | 0.00 | 0.00 | 74 | 1006.5 |
| 20260505152516 | 66 | 106 | 3.0 | 9.0 | 0.00 | 0.00 | 0.00 | 73 | 1006.4 |
| 20260505152017 | 66 | 88 | 1.0 | 12.0 | 0.00 | 0.00 | 0.00 | 74 | 1006.5 |
| 20260505151519 | 67 | 92 | 3.0 | 12.0 | 0.00 | 0.00 | 0.00 | 73 | 1006.6 |
| 20260505151015 | 67 | 82 | 3.0 | 12.0 | 0.00 | 0.00 | 0.00 | 72 | 1006.7 |
| 20260505150518 | 67 | 93 | 3.0 | 12.0 | 0.00 | 0.00 | 0.00 | 72 | 1006.7 |
| 20260505140512 | 67 | 94 | 3.0 | 11.0 | 0.00 | 0.00 | 0.00 | 68 | 1007.0 |
| 20260505125008 | 67 | 118 | 1.0 | 7.0 | 0.00 | 0.00 | 0.00 | 67 | 1007.4 |
| 20260505124510 | 67 | 56 | 2.0 | 8.0 | 0.00 | 0.00 | 0.00 | 67 | 1007.4 |
| 20260505124008 | 67 | 28 | 3.0 | 8.0 | 0.00 | 0.00 | 0.00 | 66 | 1007.4 |
| 20260505123507 | 67 | 192 | 1.0 | 8.0 | 0.00 | 0.00 | 0.00 | 66 | 1007.4 |
| 20260505123006 | 68 | 93 | 2.0 | 8.0 | 0.00 | 0.00 | 0.00 | 65 | 1007.3 |
| 20260505122507 | 69 | 108 | 3.0 | 8.0 | 0.00 | 0.00 | 0.00 | 66 | 1007.3 |
| 20260505122006 | 69 | 76 | 2.0 | 9.0 | 0.00 | 0.00 | 0.00 | 65 | 1007.3 |
| 20260505121512 | 69 | 67 | 3.0 | 9.0 | 0.00 | 0.00 | 0.00 | 64 | 1007.3 |
| 20260505121006 | 69 | 101 | 0.0 | 6.0 | 0.00 | 0.00 | 0.00 | 64 | 1007.3 |
| 20260505120508 | 69 | 259 | 0.0 | 7.0 | 0.00 | 0.00 | 0.00 | 63 | 1007.3 |
| 20260505120006 | 70 | 46 | 0.0 | 7.0 | 0.00 | 0.00 | 0.00 | 63 | 1007.4 |
| 20260505115504 | 71 | 126 | 1.0 | 6.0 | 0.00 | 0.00 | 0.00 | 63 | 1007.5 |
| 20260505115003 | 70 | 166 | 2.0 | 9.0 | 0.00 | 0.00 | 0.00 | 65 | 1007.3 |
| 20260505114504 | 70 | 107 | 1.0 | 9.0 | 0.00 | 0.00 | 0.00 | 65 | 1007.4 |
| 20260505114004 | 69 | 105 | 1.0 | 6.0 | 0.00 | 0.00 | 0.00 | 64 | 1007.3 |
| 20260505113501 | 69 | 123 | 0.0 | 6.0 | 0.00 | 0.00 | 0.00 | 65 | 1007.4 |
| 20260505113005 | 68 | 259 | 1.0 | 6.0 | 0.00 | 0.00 | 0.00 | 67 | 1007.5 |
| 20260505112603 | 68 | 194 | 0.0 | 6.0 | 0.00 | 0.00 | 0.00 | 64 | 1007.7 |
| 20260505112059 | 69 | 88 | 1.0 | 6.0 | 0.00 | 0.00 | 0.00 | 65 | 1007.6 |
| 20260505111559 | 70 | 205 | 1.0 | 7.0 | 0.00 | 0.00 | 0.00 | 65 | 1007.6 |
| 20260505111059 | 70 | 215 | 0.0 | 7.0 | 0.00 | 0.00 | 0.00 | 64 | 1007.6 |
| 20260505110558 | 70 | 243 | 4.0 | 9.0 | 0.00 | 0.00 | 0.00 | 64 | 1007.7 |
| 20260505102051 | 68 | 78 | 1.0 | 6.0 | 0.00 | 0.00 | 0.00 | 67 | 1008.0 |
| 20260505101555 | 68 | 273 | 0.0 | 4.0 | 0.00 | 0.00 | 0.00 | 66 | 1008.0 |
| 20260505101048 | 67 | 83 | 0.0 | 4.0 | 0.00 | 0.00 | 0.00 | 66 | 1008.0 |
| 20260505100548 | 67 | 272 | 1.0 | 5.0 | 0.00 | 0.00 | 0.00 | 67 | 1008.0 |
| 20260505100047 | 67 | 67 | 1.0 | 5.0 | 0.00 | 0.00 | 0.00 | 68 | 1007.9 |
| 20260505095547 | 67 | 90 | 3.0 | 5.0 | 0.00 | 0.00 | 0.00 | 67 | 1008.1 |
| 20260505095046 | 66 | 76 | 0.0 | 3.0 | 0.00 | 0.00 | 0.00 | 68 | 1008.2 |
| 20260505094545 | 66 | 240 | 1.0 | 3.0 | 0.00 | 0.00 | 0.00 | 69 | 1008.2 |
| 20260505094045 | 66 | 244 | 1.0 | 7.0 | 0.00 | 0.00 | 0.00 | 71 | 1008.3 |
| 20260505093544 | 66 | 230 | 2.0 | 7.0 | 0.00 | 0.00 | 0.00 | 71 | 1008.4 |
| 20260505093045 | 66 | 242 | 2.0 | 5.0 | 0.00 | 0.00 | 0.00 | 70 | 1008.4 |
| 20260505092543 | 66 | 240 | 0.0 | 7.0 | 0.00 | 0.00 | 0.00 | 70 | 1008.4 |
| 20260505092044 | 66 | 309 | 3.0 | 7.0 | 0.00 | 0.00 | 0.00 | 69 | 1008.3 |
| 20260505091543 | 66 | 208 | 1.0 | 5.0 | 0.00 | 0.00 | 0.00 | 70 | 1008.4 |
| 20260505091043 | 65 | 289 | 1.0 | 8.0 | 0.00 | 0.00 | 0.00 | 73 | 1008.5 |
| 20260505090539 | 64 | 254 | 3.0 | 9.0 | 0.00 | 0.00 | 0.00 | 73 | 1008.4 |
| 20260505090054 | 64 | 226 | 3.0 | 9.0 | 0.00 | 0.00 | 0.00 | 75 | 1008.6 |
| 20260505085538 | 64 | 244 | 3.0 | 8.0 | 0.00 | 0.00 | 0.00 | 77 | 1008.5 |
| 20260505085037 | 64 | 161 | 1.0 | 7.0 | 0.00 | 0.00 | 0.00 | 75 | 1008.6 |
| 20260505084540 | 63 | 195 | 3.0 | 9.0 | 0.00 | 0.00 | 0.00 | 75 | 1008.7 |
| 20260505084036 | 63 | 265 | 4.0 | 9.0 | 0.00 | 0.00 | 0.00 | 75 | 1008.7 |
| 20260505083533 | 63 | 272 | 3.0 | 7.0 | 0.00 | 0.00 | 0.00 | 75 | 1008.6 |
| 20260505083036 | 63 | 222 | 2.0 | 5.0 | 0.00 | 0.00 | 0.00 | 76 | 1008.8 |
| 20260505082532 | 62 | 299 | 2.0 | 7.0 | 0.00 | 0.00 | 0.00 | 76 | 1008.7 |
| 20260505082031 | 62 | 270 | 1.0 | 7.0 | 0.00 | 0.00 | 0.00 | 77 | 1008.8 |
| 20260505081535 | 61 | 236 | 0.0 | 5.0 | 0.00 | 0.00 | 0.00 | 80 | 1008.7 |
| 20260505081034 | 61 | 189 | 2.0 | 5.0 | 0.00 | 0.00 | 0.00 | 77 | 1008.7 |
| 20260505080530 | 62 | 209 | 0.0 | 7.0 | 0.00 | 0.00 | 0.00 | 78 | 1008.8 |
| 20260505080030 | 62 | 237 | 3.0 | 7.0 | 0.00 | 0.00 | 0.00 | 75 | 1008.8 |
| 20260505075532 | 62 | 230 | 1.0 | 4.0 | 0.00 | 0.00 | 0.00 | 79 | 1008.8 |
| 20260505075028 | 61 | 155 | 1.0 | 5.0 | 0.00 | 0.00 | 0.00 | 76 | 1008.7 |
| 20260505074527 | 61 | 192 | 1.0 | 5.0 | 0.00 | 0.00 | 0.00 | 78 | 1008.7 |
| 20260505074027 | 61 | 189 | 2.0 | 5.0 | 0.00 | 0.00 | 0.00 | 77 | 1008.9 |
| 20260505073527 | 61 | 150 | 2.0 | 5.0 | 0.00 | 0.00 | 0.00 | 76 | 1008.9 |
| 20260505073035 | 61 | 171 | 1.0 | 4.0 | 0.00 | 0.00 | 0.00 | 77 | 1008.9 |
| 20260505072524 | 61 | 236 | 1.0 | 4.0 | 0.00 | 0.00 | 0.00 | 82 | 1009.0 |
| 20260505072024 | 60 | 173 | 0.0 | 4.0 | 0.00 | 0.00 | 0.00 | 81 | 1008.9 |
| 20260505071524 | 59 | 168 | 0.0 | 3.0 | 0.00 | 0.00 | 0.00 | 81 | 1009.0 |
| 20260505071025 | 59 | 168 | 1.0 | 3.0 | 0.00 | 0.00 | 0.00 | 83 | 1008.9 |
| 20260505070525 | 58 | 167 | 0.0 | 0.0 | 0.00 | 0.00 | 0.00 | 84 | 1008.9 |
| 20260505070022 | 57 | 167 | 0.0 | 0.0 | 0.00 | 0.00 | 0.00 | 84 | 1009.0 |
| 20260505065521 | 57 | 167 | 0.0 | 0.0 | 0.00 | 0.00 | 0.00 | 85 | 1009.2 |
| 20260505065021 | 56 | 167 | 0.0 | 0.0 | 0.00 | 0.00 | 0.00 | 85 | 1009.1 |
| 20260505064524 | 56 | 167 | 0.0 | 0.0 | 0.00 | 0.00 | 0.00 | 86 | 1009.2 |
| 20260505064020 | 56 | 167 | 0.0 | 0.0 | 0.00 | 0.00 | 0.00 | 85 | 1009.3 |
| 20260505063519 | 56 | 230 | 0.0 | 0.0 | 0.00 | 0.00 | 0.00 | 86 | 1009.2 |
| 20260505063018 | 56 | 230 | 0.0 | 1.0 | 0.00 | 0.00 | 0.00 | 86 | 1009.2 |
| 20260505062523 | 56 | 230 | 0.0 | 7.0 | 0.00 | 0.00 | 0.00 | 85 | 1009.1 |
| 20260505062016 | 56 | 230 | 2.0 | 7.0 | 0.00 | 0.00 | 0.00 | 84 | 1009.2 |
| 20260505061516 | 56 | 196 | 0.0 | 3.0 | 0.00 | 0.00 | 0.00 | 84 | 1009.2 |
| 20260505061018 | 56 | 196 | 0.0 | 3.0 | 0.00 | 0.00 | 0.00 | 84 | 1009.3 |
| 20260505060516 | 56 | 178 | 0.0 | 2.0 | 0.00 | 0.00 | 0.00 | 83 | 1009.3 |
| 20260505060025 | 56 | 178 | 0.0 | 2.0 | 0.00 | 0.00 | 0.00 | 83 | 1009.3 |
| 20260505055514 | 57 | 178 | 0.0 | 2.0 | 0.00 | 0.00 | 0.00 | 84 | 1009.2 |
| 20260505055014 | 57 | 268 | 0.0 | 0.0 | 0.00 | 0.00 | 0.00 | 83 | 1009.2 |
| 20260505054525 | 57 | 360 | 0.0 | 0.0 | 0.00 | 0.00 | 0.00 | 85 | 1008.9 |
| 20260505054014 | 56 | 360 | 0.0 | 0.0 | 0.00 | 0.00 | 0.00 | 83 | 1008.9 |
| 20260505053512 | 56 | 360 | 0.0 | 0.0 | 0.00 | 0.00 | 0.00 | 83 | 1008.9 |
| 20260505053011 | 56 | 360 | 0.0 | 0.0 | 0.00 | 0.00 | 0.00 | 82 | 1008.9 |
| 20260505052510 | 55 | 360 | 0.0 | 0.0 | 0.00 | 0.00 | 0.00 | 82 | 1008.8 |
| 20260505052011 | 55 | 360 | 0.0 | 0.0 | 0.00 | 0.00 | 0.00 | 83 | 1009.0 |
| 20260505051509 | 55 | 360 | 0.0 | 0.0 | 0.00 | 0.00 | 0.00 | 82 | 1009.0 |
| 20260505051007 | 55 | 360 | 0.0 | 0.0 | 0.00 | 0.00 | 0.00 | 82 | 1008.9 |
| 20260505050508 | 55 | 360 | 0.0 | 0.0 | 0.00 | 0.00 | 0.00 | 81 | 1008.9 |
| 20260505041559 | 56 | 355 | 0.0 | 0.0 | 0.00 | 0.00 | 0.00 | 77 | 1008.8 |
| 20260505041059 | 56 | 355 | 0.0 | 0.0 | 0.00 | 0.00 | 0.00 | 77 | 1009.0 |
| 20260505040601 | 56 | 349 | 0.0 | 0.0 | 0.00 | 0.00 | 0.00 | 77 | 1008.9 |
| 20260505035556 | 56 | 349 | 0.0 | 0.0 | 0.00 | 0.00 | 0.00 | 78 | 1009.0 |
| 20260505035056 | 56 | 349 | 0.0 | 0.0 | 0.00 | 0.00 | 0.00 | 77 | 1008.9 |
| 20260505034555 | 56 | 349 | 0.0 | 0.0 | 0.00 | 0.00 | 0.00 | 78 | 1009.0 |
| 20260505034055 | 56 | 349 | 0.0 | 0.0 | 0.00 | 0.00 | 0.00 | 77 | 1009.1 |
| 20260505033555 | 57 | 349 | 0.0 | 0.0 | 0.00 | 0.00 | 0.00 | 77 | 1009.1 |
| 20260505033112 | 57 | 348 | 0.0 | 1.0 | 0.00 | 0.00 | 0.00 | 76 | 1009.0 |
| 20260505032554 | 57 | 348 | 0.0 | 1.0 | 0.00 | 0.00 | 0.00 | 76 | 1009.2 |
| 20260505032052 | 57 | 348 | 0.0 | 0.0 | 0.00 | 0.00 | 0.00 | 76 | 1009.2 |
| 20260505031553 | 57 | 348 | 0.0 | 0.0 | 0.00 | 0.00 | 0.00 | 75 | 1009.1 |
| 20260505031055 | 57 | 348 | 0.0 | 0.0 | 0.00 | 0.00 | 0.00 | 75 | 1009.2 |
| 20260505030555 | 57 | 348 | 0.0 | 0.0 | 0.00 | 0.00 | 0.00 | 75 | 1009.2 |
| 20260505030053 | 57 | 348 | 0.0 | 0.0 | 0.00 | 0.00 | 0.00 | 75 | 1009.2 |
| 20260505025552 | 57 | 348 | 0.0 | 1.0 | 0.00 | 0.00 | 0.00 | 76 | 1009.4 |
| 20260505025051 | 56 | 348 | 0.0 | 3.0 | 0.00 | 0.00 | 0.00 | 76 | 1009.4 |
| 20260505024552 | 56 | 338 | 0.0 | 1.0 | 0.00 | 0.00 | 0.00 | 76 | 1009.5 |
| 20260505024050 | 56 | 49 | 0.0 | 2.0 | 0.00 | 0.00 | 0.00 | 77 | 1009.5 |
| 20260505023550 | 56 | 50 | 0.0 | 2.0 | 0.00 | 0.00 | 0.00 | 77 | 1009.6 |
| 20260505023100 | 56 | 12 | 0.0 | 2.0 | 0.00 | 0.00 | 0.00 | 77 | 1009.6 |
| 20260505022552 | 56 | 12 | 0.0 | 3.0 | 0.00 | 0.00 | 0.00 | 77 | 1009.8 |
| 20260505022052 | 56 | 13 | 1.0 | 3.0 | 0.00 | 0.00 | 0.00 | 77 | 1009.9 |
| 20260505021548 | 56 | 49 | 0.0 | 3.0 | 0.00 | 0.00 | 0.00 | 76 | 1009.9 |
| 20260505021046 | 56 | 57 | 0.0 | 3.0 | 0.00 | 0.00 | 0.00 | 76 | 1009.9 |
| 20260505020545 | 57 | 60 | 0.0 | 2.0 | 0.00 | 0.00 | 0.00 | 74 | 1010.0 |
| 20260505020049 | 57 | 59 | 0.0 | 1.0 | 0.00 | 0.00 | 0.00 | 75 | 1010.0 |
| 20260505015543 | 57 | 59 | 0.0 | 0.0 | 0.00 | 0.00 | 0.00 | 74 | 1010.1 |
| 20260505015045 | 58 | 59 | 0.0 | 0.0 | 0.00 | 0.00 | 0.00 | 74 | 1010.1 |
| 20260505014541 | 58 | 59 | 0.0 | 0.0 | 0.00 | 0.00 | 0.00 | 73 | 1010.3 |
| 20260505014044 | 58 | 59 | 0.0 | 0.0 | 0.00 | 0.00 | 0.00 | 73 | 1010.3 |
| 20260505013541 | 58 | 59 | 0.0 | 0.0 | 0.00 | 0.00 | 0.00 | 73 | 1010.3 |
| 20260505013040 | 58 | 59 | 0.0 | 0.0 | 0.00 | 0.00 | 0.00 | 72 | 1010.3 |
| 20260505012540 | 58 | 59 | 0.0 | 2.0 | 0.00 | 0.00 | 0.00 | 72 | 1010.4 |
| 20260505012039 | 58 | 63 | 0.0 | 2.0 | 0.00 | 0.00 | 0.00 | 73 | 1010.4 |
| 20260505011539 | 58 | 64 | 0.0 | 2.0 | 0.00 | 0.00 | 0.00 | 73 | 1010.4 |
| 20260505011037 | 59 | 65 | 0.0 | 2.0 | 0.00 | 0.00 | 0.00 | 72 | 1010.5 |
| 20260505010537 | 59 | 65 | 0.0 | 0.0 | 0.00 | 0.00 | 0.00 | 71 | 1010.7 |
| 20260505010041 | 59 | 65 | 0.0 | 0.0 | 0.00 | 0.00 | 0.00 | 70 | 1010.6 |
| 20260505005536 | 60 | 65 | 0.0 | 0.0 | 0.00 | 0.00 | 0.00 | 69 | 1010.7 |
| 20260505005036 | 60 | 65 | 0.0 | 0.0 | 0.00 | 0.00 | 0.00 | 68 | 1010.8 |
| 20260505004545 | 60 | 65 | 0.0 | 0.0 | 0.00 | 0.00 | 0.00 | 69 | 1010.8 |
| 20260505004037 | 60 | 65 | 0.0 | 0.0 | 0.00 | 0.00 | 0.00 | 67 | 1010.8 |
| 20260505003535 | 60 | 65 | 0.0 | 0.0 | 0.00 | 0.00 | 0.00 | 68 | 1010.7 |
| 20260505003038 | 60 | 65 | 0.0 | 2.0 | 0.00 | 0.00 | 0.00 | 68 | 1010.8 |
| 20260505002535 | 60 | 71 | 0.0 | 4.0 | 0.00 | 0.00 | 0.00 | 67 | 1010.6 |
| 20260505002034 | 60 | 95 | 2.0 | 4.0 | 0.00 | 0.00 | 0.00 | 67 | 1010.8 |
| 20260505001534 | 60 | 36 | 0.0 | 3.0 | 0.00 | 0.00 | 0.00 | 69 | 1010.7 |
| 20260505001034 | 60 | 80 | 0.0 | 4.0 | 0.00 | 0.00 | 0.00 | 69 | 1010.8 |
| 20260505000534 | 60 | 84 | 1.0 | 5.0 | 0.00 | 0.00 | 0.00 | 70 | 1011.0 |
| 20260505000035 | 60 | 37 | 2.0 | 5.0 | 0.00 | 0.00 | 0.00 | 70 | 1011.0 |
| 20260504235533 | 60 | 42 | 1.0 | 4.0 | 0.00 | 0.00 | 0.00 | 70 | 1010.8 |
| 20260504235134 | 60 | 65 | 1.0 | 4.0 | 0.00 | 0.00 | 0.00 | 70 | 1011.0 |
| 20260504234543 | 60 | 55 | 1.0 | 6.0 | 0.00 | 0.00 | 0.00 | 70 | 1011.1 |
| 20260504234032 | 60 | 52 | 1.0 | 6.0 | 0.00 | 0.00 | 0.00 | 70 | 1011.1 |
| 20260504233530 | 60 | 69 | 1.0 | 5.0 | 0.00 | 0.00 | 0.00 | 70 | 1011.0 |
| 20260504233034 | 60 | 68 | 1.0 | 5.0 | 0.00 | 0.00 | 0.00 | 70 | 1011.2 |
| 20260504232530 | 60 | 65 | 2.0 | 5.0 | 0.00 | 0.00 | 0.00 | 70 | 1011.2 |
| 20260504232029 | 60 | 57 | 2.0 | 6.0 | 0.00 | 0.00 | 0.00 | 70 | 1011.3 |
| 20260504231539 | 60 | 37 | 1.0 | 4.0 | 0.00 | 0.00 | 0.00 | 70 | 1011.4 |
| 20260504231030 | 60 | 78 | 1.0 | 5.0 | 0.00 | 0.00 | 0.00 | 70 | 1011.4 |
| 20260504230528 | 60 | 350 | 0.0 | 5.0 | 0.00 | 0.00 | 0.00 | 71 | 1011.4 |
| 20260504230028 | 60 | 49 | 1.0 | 5.0 | 0.00 | 0.00 | 0.00 | 70 | 1011.4 |
| 20260504225528 | 60 | 333 | 1.0 | 4.0 | 0.00 | 0.00 | 0.00 | 71 | 1011.3 |
| 20260504225029 | 60 | 65 | 0.0 | 5.0 | 0.00 | 0.00 | 0.00 | 71 | 1011.5 |
| 20260504224527 | 60 | 68 | 1.0 | 6.0 | 0.00 | 0.00 | 0.00 | 71 | 1011.6 |
| 20260504224022 | 59 | 71 | 1.0 | 6.0 | 0.00 | 0.00 | 0.00 | 72 | 1011.7 |